DW9330 Weather Reports


time (UTC)temp
C
wind
direction
speed
KPH
gust
KPH
rain 1hr
cm
rain 24hr
cm
rain mn
cm
humidity
%
barometer
mb
20260505122546 18 202 4.8 8.0 0.00 0.00 0.00 61 1011.2
20260505122045 18 207 3.2 8.0 0.00 0.00 0.00 63 1011.2
20260505121548 18 229 3.2 6.4 0.00 0.00 0.00 64 1011.1
20260505121043 18 228 1.6 4.8 0.00 0.00 0.00 64 1011.1
20260505120540 17 229 1.6 6.4 0.00 0.00 0.00 65 1011.0
20260505120040 17 234 1.6 6.4 0.00 0.00 0.00 65 1011.0
20260505115539 17 221 1.6 6.4 0.00 0.00 0.00 65 1010.8
20260505115039 17 221 1.6 8.0 0.00 0.00 0.00 67 1010.8
20260505114538 16 234 1.6 6.4 0.00 0.00 0.00 68 1010.8
20260505114037 16 205 1.6 6.4 0.00 0.00 0.00 69 1010.7
20260505113536 15 205 1.6 6.4 0.00 0.00 0.00 71 1010.6
20260505113042 15 202 0.0 4.8 0.00 0.00 0.00 73 1010.5
20260505112536 15 202 1.6 4.8 0.00 0.00 0.00 73 1010.5
20260505112035 15 202 0.0 3.2 0.00 0.00 0.00 74 1010.4
20260505111543 15 202 0.0 1.6 0.00 0.00 0.00 72 1010.4
20260505111033 15 202 0.0 1.6 0.00 0.00 0.00 71 1010.3
20260505110532 15 202 0.0 1.6 0.00 0.00 0.00 70 1010.2
20260505102031 15 252 4.8 11.3 0.00 0.00 0.00 68 1009.8
20260505101534 15 207 1.6 9.7 0.00 0.00 0.00 68 1009.8
20260505101029 15 198 1.6 11.3 0.00 0.00 0.00 68 1009.9
20260505100529 15 209 1.6 8.0 0.00 0.00 0.00 68 1009.9
20260505100031 15 211 1.6 4.8 0.00 0.00 0.00 67 1009.8
20260505095527 15 223 1.6 8.0 0.00 0.00 0.00 67 1009.8
20260505095026 15 208 3.2 8.0 0.00 0.00 0.00 67 1009.8
20260505094527 15 287 1.6 9.7 0.00 0.00 0.00 67 1009.7
20260505094027 15 188 3.2 9.7 0.00 0.00 0.00 66 1009.7
20260505093524 15 193 3.2 9.7 0.00 0.00 0.00 66 1009.7
20260505093030 16 186 3.2 9.7 0.00 0.00 0.00 66 1009.7
20260505092524 16 175 1.6 12.9 0.00 0.00 0.00 66 1009.6
20260505092024 16 207 3.2 12.9 0.00 0.00 0.00 66 1009.6
20260505091524 16 210 4.8 9.7 0.00 0.00 0.00 66 1009.6
20260505091023 16 189 3.2 9.7 0.00 0.00 0.00 66 1009.7
20260505090524 16 170 3.2 8.0 0.00 0.00 0.00 66 1009.5
20260505090026 16 184 1.6 8.0 0.00 0.00 0.00 65 1009.5
20260505085521 16 192 3.2 9.7 0.00 0.00 0.00 65 1009.5
20260505085021 16 183 1.6 11.3 0.00 0.00 0.00 65 1009.5
20260505084527 16 206 1.6 9.7 0.00 0.00 0.00 65 1009.6
20260505084019 16 215 3.2 11.3 0.00 0.00 0.00 64 1009.5
20260505083518 16 194 1.6 3.2 0.00 0.00 0.00 64 1009.5
20260505083019 16 190 1.6 14.5 0.00 0.00 0.00 64 1009.4
20260505082518 16 192 3.2 14.5 0.00 0.00 0.00 63 1009.4
20260505082017 16 209 1.6 8.0 0.00 0.00 0.00 63 1009.4
20260505081518 16 192 0.0 4.8 0.00 0.00 0.00 63 1009.3
20260505081020 16 192 1.6 8.0 0.00 0.00 0.00 63 1009.3
20260505080519 16 191 1.6 8.0 0.00 0.00 0.00 62 1009.3
20260505080025 16 189 0.0 9.7 0.00 0.00 0.00 63 1009.3
20260505075520 16 189 4.8 9.7 0.00 0.00 0.00 62 1009.2
20260505075016 16 188 3.2 9.7 0.00 0.00 0.00 63 1009.3
20260505074516 16 189 1.6 9.7 0.00 0.00 0.00 63 1009.2
20260505074016 16 187 3.2 12.9 0.00 0.00 0.00 62 1009.3
20260505073516 16 208 3.2 14.5 0.00 0.00 0.00 63 1009.2
20260505073017 16 173 4.8 14.5 0.00 0.00 0.00 63 1009.2
20260505072516 16 211 4.8 8.0 0.00 0.00 0.00 63 1009.2
20260505072016 16 198 3.2 8.0 0.00 0.00 0.00 63 1009.2
20260505071516 16 185 1.6 8.0 0.00 0.00 0.00 63 1009.2
20260505071015 16 195 3.2 9.7 0.00 0.00 0.00 63 1009.2
20260505070514 16 196 1.6 9.7 0.00 0.00 0.00 63 1009.2
20260505070021 16 198 1.6 8.0 0.00 0.00 0.00 63 1009.2
20260505065514 16 196 1.6 8.0 0.00 0.00 0.00 63 1009.3
20260505065013 16 209 3.2 8.0 0.00 0.00 0.00 62 1009.3
20260505064513 17 178 3.2 8.0 0.00 0.00 0.00 62 1009.3
20260505064013 17 196 0.0 4.8 0.00 0.00 0.00 62 1009.4
20260505063512 17 197 1.6 4.8 0.00 0.00 0.00 61 1009.4
20260505063012 17 196 1.6 9.7 0.00 0.00 0.00 61 1009.4
20260505062512 17 194 1.6 9.7 0.00 0.00 0.00 61 1009.5
20260505062013 17 229 0.0 4.8 0.00 0.00 0.00 61 1009.5
20260505061514 17 229 0.0 4.8 0.00 0.00 0.00 61 1009.6
20260505061013 17 229 0.0 4.8 0.00 0.00 0.00 60 1009.7
20260505060511 17 231 0.0 4.8 0.00 0.00 0.00 60 1009.7
20260505060011 17 190 0.0 3.2 0.00 0.00 0.00 60 1009.7
20260505055511 17 190 0.0 8.0 0.00 0.00 0.00 60 1009.7
20260505055011 17 190 1.6 11.3 0.00 0.00 0.00 59 1009.6
20260505054510 17 248 0.0 11.3 0.00 0.00 0.00 60 1009.6
20260505054009 17 199 1.6 6.4 0.00 0.00 0.00 60 1009.7
20260505053509 17 200 0.0 4.8 0.00 0.00 0.00 60 1009.7
20260505053014 17 202 0.0 4.8 0.00 0.00 0.00 60 1009.6
20260505052510 17 201 0.0 4.8 0.00 0.00 0.00 60 1009.7
20260505052010 16 201 1.6 4.8 0.00 0.00 0.00 60 1009.7
20260505051510 16 201 0.0 3.2 0.00 0.00 0.00 61 1009.7
20260505051009 16 200 0.0 3.2 0.00 0.00 0.00 61 1009.7
20260505050511 16 200 0.0 4.8 0.00 0.00 0.00 61 1009.7
20260505041503 17 191 1.6 6.4 0.00 0.00 0.00 56 1009.5
20260505041002 17 192 1.6 6.4 0.00 0.00 0.00 56 1009.4
20260505040600 17 198 1.6 4.8 0.00 0.00 0.00 56 1009.5
20260505040104 17 200 1.6 8.0 0.00 0.00 0.00 55 1009.4
20260505035559 17 198 1.6 9.7 0.00 0.00 0.00 55 1009.5
20260505035059 17 183 1.6 9.7 0.00 0.00 0.00 55 1009.4
20260505034609 17 195 3.2 11.3 0.00 0.00 0.00 55 1009.4
20260505034101 17 200 3.2 11.3 0.00 0.00 0.00 55 1009.4
20260505033558 17 187 3.2 9.7 0.00 0.00 0.00 55 1009.3
20260505033104 17 196 1.6 9.7 0.00 0.00 0.00 55 1009.2
20260505032559 17 209 1.6 8.0 0.00 0.00 0.00 55 1009.2
20260505032058 17 200 1.6 4.8 0.00 0.00 0.00 54 1009.2
20260505031558 17 197 1.6 8.0 0.00 0.00 0.00 54 1009.2
20260505031057 17 198 1.6 8.0 0.00 0.00 0.00 54 1009.2
20260505030558 17 185 1.6 8.0 0.00 0.00 0.00 53 1009.2
20260505030057 17 179 3.2 9.7 0.00 0.00 0.00 53 1009.2
20260505025557 17 183 3.2 9.7 0.00 0.00 0.00 53 1009.2
20260505025056 17 172 4.8 11.3 0.00 0.00 0.00 53 1009.1
20260505024556 17 360 3.2 11.3 0.00 0.00 0.00 53 1009.2
20260505024056 17 196 4.8 9.7 0.00 0.00 0.00 53 1009.3
20260505023557 17 360 3.2 9.7 0.00 0.00 0.00 53 1009.5
20260505023057 17 185 1.6 12.9 0.00 0.00 0.00 54 1009.4
20260505022557 17 360 3.2 12.9 0.00 0.00 0.00 53 1009.4
20260505022100 17 360 1.6 8.0 0.00 0.00 0.00 53 1009.4
20260505021558 17 360 3.2 9.7 0.00 0.00 0.00 53 1009.5
20260505021056 17 360 1.6 12.9 0.00 0.00 0.00 53 1009.4
20260505020555 17 360 1.6 12.9 0.00 0.00 0.00 52 1009.3
20260505020055 17 360 3.2 9.7 0.00 0.00 0.00 52 1009.2
20260505015555 17 360 3.2 11.3 0.00 0.00 0.00 52 1009.3
20260505015055 17 360 3.2 9.7 0.00 0.00 0.00 51 1009.2
20260505014555 17 360 1.6 8.0 0.00 0.00 0.00 51 1009.2
20260505014054 18 360 3.2 9.7 0.00 0.00 0.00 51 1009.2
20260505013554 18 360 1.6 9.7 0.00 0.00 0.00 51 1009.1
20260505013055 18 360 3.2 12.9 0.00 0.00 0.00 50 1009.2
20260505012555 18 360 3.2 12.9 0.00 0.00 0.00 50 1009.3
20260505012056 18 360 6.4 14.5 0.00 0.00 0.00 50 1009.3
20260505011600 18 360 4.8 14.5 0.00 0.00 0.00 50 1009.2
20260505011055 18 360 3.2 8.0 0.00 0.00 0.00 50 1009.2
20260505010554 18 360 1.6 11.3 0.00 0.00 0.00 49 1009.0
20260505010103 18 360 4.8 11.3 0.00 0.00 0.00 49 1009.0
20260505005552 18 360 4.8 11.3 0.00 0.00 0.00 48 1008.9
20260505005053 18 360 4.8 12.9 0.00 0.00 0.00 48 1008.8
20260505004552 19 360 4.8 14.5 0.00 0.00 0.00 48 1008.8
20260505004055 19 360 4.8 14.5 0.00 0.00 0.00 47 1008.7
20260505003553 19 360 6.4 14.5 0.00 0.00 0.00 46 1008.7
20260505003053 19 360 3.2 12.9 0.00 0.00 0.00 46 1008.8
20260505002552 20 360 4.8 12.9 0.00 0.00 0.00 45 1008.7
20260505002052 20 360 3.2 9.7 0.00 0.00 0.00 44 1008.7
20260505001554 20 360 3.2 9.7 0.00 0.00 0.00 43 1008.7
20260505001051 20 360 3.2 9.7 0.00 0.00 0.00 42 1008.7
20260505000550 20 163 3.2 11.3 0.00 0.00 0.00 41 1008.7
20260505000059 21 190 4.8 11.3 0.00 0.00 0.00 41 1008.6
20260504235550 21 197 4.8 11.3 0.00 0.00 0.00 41 1008.6
20260504235051 21 199 3.2 11.3 0.00 0.00 0.00 41 1008.5
20260504234603 21 196 4.8 11.3 0.00 0.00 0.00 40 1008.5
20260504234053 21 214 4.8 11.3 0.00 0.00 0.00 39 1008.6
20260504233549 21 193 3.2 16.1 0.00 0.00 0.00 40 1008.6
20260504233050 21 202 4.8 16.1 0.00 0.00 0.00 40 1008.5
20260504232550 21 258 3.2 16.1 0.00 0.00 0.00 39 1008.5
20260504232049 21 202 6.4 22.5 0.00 0.00 0.00 39 1008.6
20260504231551 22 263 9.7 22.5 0.00 0.00 0.00 38 1008.6
20260504231049 22 194 4.8 16.1 0.00 0.00 0.00 38 1008.6
20260504230548 22 199 6.4 17.7 0.00 0.00 0.00 38 1008.6
20260504230048 22 199 6.4 17.7 0.00 0.00 0.00 39 1008.6
20260504225548 22 181 6.4 17.7 0.00 0.00 0.00 39 1008.6
20260504225050 22 190 3.2 11.3 0.00 0.00 0.00 39 1008.6
20260504224550 22 190 3.2 11.3 0.00 0.00 0.00 40 1008.7
20260504224046 22 209 3.2 17.7 0.00 0.00 0.00 39 1008.7
20260504223546 22 236 4.8 17.7 0.00 0.00 0.00 39 1008.7
20260504223046 22 202 4.8 24.1 0.00 0.00 0.00 39 1008.8
20260504222546 22 198 9.7 24.1 0.00 0.00 0.00 38 1008.8
20260504222049 22 216 3.2 14.5 0.00 0.00 0.00 39 1008.8
20260504221548 22 208 4.8 17.7 0.00 0.00 0.00 38 1008.8
20260504221045 22 186 3.2 17.7 0.00 0.00 0.00 38 1008.8
20260504220544 22 199 3.2 16.1 0.00 0.00 0.00 39 1008.9
20260504220050 22 227 4.8 16.1 0.00 0.00 0.00 39 1008.8
20260504215544 22 194 6.4 14.5 0.00 0.00 0.00 38 1008.8
20260504215046 22 199 4.8 11.3 0.00 0.00 0.00 38 1008.8
20260504214544 22 224 3.2 11.3 0.00 0.00 0.00 38 1008.9
20260504214043 22 209 3.2 12.9 0.00 0.00 0.00 39 1008.8
20260504213543 22 199 4.8 12.9 0.00 0.00 0.00 38 1008.8
20260504213101 22 257 6.4 12.9 0.00 0.00 0.00 39 1008.9
20260504212542 22 198 8.0 12.9 0.00 0.00 0.00 39 1009.0
20260504212045 22 200 4.8 12.9 0.00 0.00 0.00 39 1008.9
20260504211544 22 193 4.8 16.1 0.00 0.00 0.00 39 1008.8
20260504211043 22 212 4.8 16.1 0.00 0.00 0.00 39 1008.9
20260504210544 22 205 8.0 17.7 0.00 0.00 0.00 38 1008.8
20260504210042 22 228 4.8 12.9 0.00 0.00 0.00 38 1008.8
20260504205542 22 141 3.2 12.9 0.00 0.00 0.00 37 1008.8
20260504205041 22 205 4.8 14.5 0.00 0.00 0.00 39 1008.9
20260504204543 22 216 3.2 14.5 0.00 0.00 0.00 39 1008.9
20260504204040 22 210 6.4 16.1 0.00 0.00 0.00 39 1008.9
20260504203540 22 203 3.2 11.3 0.00 0.00 0.00 39 1008.9
20260504203040 22 261 3.2 14.5 0.00 0.00 0.00 40 1009.0
20260504202539 22 200 4.8 14.5 0.00 0.00 0.00 39 1009.1
20260504202037 22 208 6.4 16.1 0.00 0.00 0.00 37 1009.2
20260504201538 22 215 4.8 16.1 0.00 0.00 0.00 38 1009.3
20260504201037 22 255 6.4 12.9 0.00 0.00 0.00 38 1009.3
20260504200536 22 274 3.2 17.7 0.00 0.00 0.00 39 1009.4
20260504200036 22 232 8.0 17.7 0.00 0.00 0.00 38 1009.6
20260504195535 22 200 6.4 19.3 0.00 0.00 0.00 37 1009.6
20260504195034 22 172 4.8 19.3 0.00 0.00 0.00 40 1009.6
20260504194534 22 192 3.2 25.7 0.00 0.00 0.00 38 1009.7
20260504194034 22 203 6.4 25.7 0.00 0.00 0.00 37 1009.8
20260504193534 22 259 6.4 12.9 0.00 0.00 0.00 40 1009.8
20260504193038 22 200 4.8 11.3 0.00 0.00 0.00 40 1010.0
20260504192530 22 252 6.4 16.1 0.00 0.00 0.00 38 1010.2
20260504192030 22 259 4.8 16.1 0.00 0.00 0.00 39 1010.2
20260504191533 22 278 3.2 14.5 0.00 0.00 0.00 40 1010.3
20260504191030 22 221 4.8 24.1 0.00 0.00 0.00 38 1010.4
20260504190533 22 203 4.8 24.1 0.00 0.00 0.00 40 1010.4
20260504190032 22 187 6.4 19.3 0.00 0.00 0.00 41 1010.4
20260504185527 22 205 4.8 19.3 0.00 0.00 0.00 40 1010.5
20260504185028 22 276 4.8 19.3 0.00 0.00 0.00 43 1010.5
20260504184526 22 232 3.2 12.9 0.00 0.00 0.00 42 1010.7
20260504184025 22 231 4.8 19.3 0.00 0.00 0.00 39 1010.9
20260504183524 22 242 4.8 19.3 0.00 0.00 0.00 41 1011.0
20260504183023 21 225 6.4 11.3 0.00 0.00 0.00 43 1011.0
20260504182523 22 207 1.6 12.9 0.00 0.00 0.00 38 1011.0
20260504182024 22 198 3.2 12.9 0.00 0.00 0.00 42 1011.1
20260504181522 21 196 6.4 24.1 0.00 0.00 0.00 42 1011.1
20260504181022 21 211 3.2 24.1 0.00 0.00 0.00 43 1011.1
20260504180521 21 191 4.8 9.7 0.00 0.00 0.00 40 1011.1
20260504180020 21 250 3.2 11.3 0.00 0.00 0.00 39 1011.3
20260504175524 21 229 4.8 11.3 0.00 0.00 0.00 42 1011.3
20260504175024 21 233 3.2 11.3 0.00 0.00 0.00 38 1011.3
20260504174522 21 221 3.2 19.3 0.00 0.00 0.00 38 1011.3
20260504174019 21 177 1.6 16.1 0.00 0.00 0.00 43 1011.3
20260504173519 21 202 3.2 12.9 0.00 0.00 0.00 40 1011.4
20260504173018 21 205 3.2 12.9 0.00 0.00 0.00 40 1011.5
20260504172517 21 261 3.2 12.9 0.00 0.00 0.00 45 1011.6
20260504172021 21 280 3.2 12.9 0.00 0.00 0.00 43 1011.7
20260504171516 21 254 1.6 14.5 0.00 0.00 0.00 42 1011.7
20260504171015 20 174 6.4 11.3 0.00 0.00 0.00 40 1011.9
20260504170514 20 211 4.8 16.1 0.00 0.00 0.00 44 1011.9
20260504151059 18 225 4.8 12.9 0.00 0.00 0.00 44 1013.3
20260504150558 18 202 4.8 14.5 0.00 0.00 0.00 43 1013.3
20260504141050 17 223 3.2 12.9 0.00 0.00 0.00 45 1013.6
20260504140549 17 194 6.4 17.7 0.00 0.00 0.00 43 1013.7
20260504130539 15 360 3.2 11.3 0.00 0.00 0.00 48 1013.9